Location: Borbetomagus
(49.6328°N, 8.3592°E)
Time: 21:09:44
(UTC+00:00)

USA 229 DEB - Pass Details

Date: 19 May 2025
Orbit: 872 x 1339 km, 63.4° (Epoch: 14 June)

Event Time Altitude Azimuth Distance (km) Brightness Sun altitude
Exits shadow 23:20:44 33° 208° (SSW) 1,547 4.1 -20.4°
Maximum altitude 23:23:42 77° 128° (SE) 1,014 3.4 -20.4°
Drops below altitude 10° 23:30:30 10° 44° (NE) 2,912 6.6 -20.4°
Sets 23:33:18 0° 44° (NE) 3,943 7.4 -20.3°
